24h Messdaten per 12.12.2019 um 11:20:01

Datum Zeit Luftdruck Temp Balkon Feuchte Balkon Temp Strasse Feuchte Strasse Wind km/h Wind Boe Wind aus (Grad) Regen l/15min Licht Lux Sonne h/Monat
12.12.19 11:20:01 0.0
12.12.19 11:15:01 0.0
12.12.19 11:10:01
12.12.19 11:05:02 0.0
12.12.19 11:00:02 0.0
12.12.19 10:55:02 0.0
12.12.19 10:50:02 0.0
12.12.19 10:45:02 0.0
12.12.19 10:40:02 0.0
12.12.19 10:35:02 0.0
12.12.19 10:30:02 4.0 7.9 135 0.0
12.12.19 10:25:02 4.0 7.9 135 0.0
12.12.19 10:20:02 4.3 0.0 135 0.0
12.12.19 10:15:02 5.8 7.2 22.5 0.0
12.12.19 10:10:01 5.8 7.2 22.5 0.0
12.12.19 10:05:01 5.8 7.6 337.5 0.0
12.12.19 10:00:01 5.4 7.6 112.5 0.0
12.12.19 09:55:01 5.4 7.6 112.5 0.0
12.12.19 09:50:02 5.4 6.5 112.5 0.0
12.12.19 09:45:02 4.3 3.2 90 0.0
12.12.19 09:40:02 4.3 3.2 90 0.0
12.12.19 09:35:02 4.0 2.9 112.5 0.0
12.12.19 09:30:01 3.6 4.0 90 0.0
12.12.19 09:25:01 3.6 4.0 90
12.12.19 09:20:02 4.0 2.9 112.5 0.0
12.12.19 09:15:02 3.2 4.0 112.5 0.0
12.12.19 09:10:02 3.2 4.0 112.5 0.0
12.12.19 09:05:02 3.6 0.0 157.5 0.0
12.12.19 09:00:01 2.9 0.0 112.5 0.0
12.12.19 08:55:01 2.9 0.0 112.5 0.0
12.12.19 08:50:02 3.2 4.3 45 0.0
12.12.19 08:45:02 3.2 3.6 112.5 0.0
12.12.19 08:40:02 3.2 3.6 112.5 0.0
12.12.19 08:35:01 3.6 1.8 22.5 0.0
12.12.19 08:30:01 2.9 7.6 112.5 0.0
12.12.19 08:25:01 2.9 7.6 112.5
12.12.19 08:20:02 2.9 1.4 292.5 0.0
12.12.19 08:15:01 3.6 5.4 67.5
12.12.19 08:10:01 3.6 5.4 67.5 0.0
12.12.19 08:05:01 4.0 2.5 22.5 0.0
12.12.19 08:00:01 4.0 6.5 67.5 0.0
12.12.19 07:55:01 4.0 6.5 67.5 0.0
12.12.19 07:50:02 3.6 3.2 67.5 0.0
12.12.19 07:45:02 0.7 1.4 112.5 0.0
12.12.19 07:40:02 0.7 1.4 112.5 0.0
12.12.19 07:35:01 1.4 0.0 292.5 0.0
12.12.19 07:30:01 1.8 1.4 0 0.0
12.12.19 07:25:01 1.8 1.4 0
12.12.19 07:20:03 1.4 6.8 112.5 0.0
12.12.19 07:15:03 1.8 0.0 112.5 0.0
12.12.19 07:10:02 2.5 2.2 67.5 0.0
12.12.19 07:05:01 2.9 1.4 67.5 0.0
12.12.19 07:00:01 2.5 5.0 22.5 0.0
12.12.19 06:55:01 2.5 5.0 22.5 0.0
12.12.19 06:50:04 2.2 6.1 90 0.0
12.12.19 06:45:04 2.9 2.5 112.5 0.0
12.12.19 06:40:04 3.2 5.0 202.5
12.12.19 06:35:04 3.2 2.9 67.5 0.0
12.12.19 06:30:04 3.2 5.8 67.5 0.0
12.12.19 06:25:04 3.6 8.6 135 0.0
12.12.19 06:20:02 3.2 6.1 135 0.0
12.12.19 06:15:02 2.9 4.7 22.5 0.0
12.12.19 06:10:02 2.2 4.3 112.5 0.0
12.12.19 06:05:01 1.4 1.4 22.5 0.0
12.12.19 06:00:01 2.2 2.5 135 0.0
12.12.19 05:55:01 2.2 2.5 135 0.0
12.12.19 05:50:02 1.8 3.2 67.5 0.0
12.12.19 05:45:02 2.2 2.9 90 0.0
12.12.19 05:40:02 2.2 2.9 90 0.0
12.12.19 05:35:02 2.2 2.9 337.5 0.0
12.12.19 05:30:02 3.2 5.8 90 0.0
12.12.19 05:25:02 3.2 5.8 90 0.0
12.12.19 05:20:02 3.6 10.1 135 0.0
12.12.19 05:15:02 3.2 3.2 315 0.0
12.12.19 05:10:02 2.9 4.7 112.5 0.0
12.12.19 05:05:02 2.2 4.7 45 0.0
12.12.19 05:00:02 1.8 0.0 22.5 0.0
12.12.19 04:54:02 1.8 0.0 22.5 0.0
12.12.19 04:49:02 1.8 3.6 112.5 0.0
12.12.19 04:44:02 0.7 4.3 112.5 0.0
12.12.19 04:39:02 0.7 4.3 112.5 0.0
12.12.19 04:34:02 0.0 1.4 45 0.0
12.12.19 04:29:02 0.4 3.2 0 0.0
12.12.19 04:24:02 0.4 3.2 0 0.0
12.12.19 04:19:02 0.7 1.4 135 0.0
12.12.19 04:14:02 0.7 3.2 45 0.0
12.12.19 04:09:01 0.7 3.2 45 0.0
12.12.19 04:04:01 0.4 0.0 225 0.0
12.12.19 03:59:01 0.7 0.0 135 0.0
12.12.19 03:54:02 0.7 0.0 135 0.0
12.12.19 03:49:02 0.7 5.8 202.5 0.0
12.12.19 03:44:02 0.7 0.0 180 0.0
12.12.19 03:39:02 0.7 0.0 180 0.0
12.12.19 03:34:01 1.4 2.9 157.5 0.0
12.12.19 03:29:01 1.4 0.0 247.5 0.0
12.12.19 03:24:02 1.4 0.0 247.5 0.0
12.12.19 03:19:02 1.4 0.0 180 0.0
12.12.19 03:14:02 1.4 4.0 135 0.0
12.12.19 03:09:01 1.4 4.0 135 0.0
12.12.19 03:04:01 1.4 3.6 135 0.0
12.12.19 02:59:01 1.8 2.2 112.5 0.0
12.12.19 02:54:02 1.8 2.2 112.5 0.0
12.12.19 02:49:01 1.4 2.5 157.5 0.0
12.12.19 02:44:01 1.8 2.9 45 0.0
12.12.19 02:39:02 1.8 2.9 45 0.0
12.12.19 02:34:01 1.4 4.0 135 0.0
12.12.19 02:29:01 1.4 4.7 112.5 0.0
12.12.19 02:24:01 1.4 4.7 112.5 0.0
12.12.19 02:19:01 0.4 1.8 90 0.0
12.12.19 02:14:01 0.4 0.0 135 0.0
12.12.19 02:09:01 0.4 0.0 135 0.0
12.12.19 02:04:01 0.7 0.0 270 0.0
12.12.19 01:59:01 0.0 0.0 270 0.0
12.12.19 01:54:02 0.0 0.0 270 0.0
12.12.19 01:49:02 0.0 0.0 337.5 0.0
12.12.19 01:44:02 0.0 0.0 67.5 0.0
12.12.19 01:39:01 0.0 0.0 67.5 0.0
12.12.19 01:34:01 0.0 0.0 292.5 0.0
12.12.19 01:29:01 0.0 0.0 112.5 0.0
12.12.19 01:24:02 0.0 0.0 112.5 0.0
12.12.19 01:19:02 0.0 0.0 202.5 0.0
12.12.19 01:14:02 0.0 0.0 0 0.0
12.12.19 01:09:02 0.0 0.0 0 0.0
12.12.19 01:04:02 0.0 0.0 247.5 0.0
12.12.19 00:59:02 0.0 0.0 157.5 0.0
12.12.19 00:54:02 0.0 0.0 157.5 0.0
12.12.19 00:49:02 0.0 0.0 247.5 0.0
12.12.19 00:44:02 0.7 0.0 135 0.0
12.12.19 00:39:01 0.7 0.0 135 0.0
12.12.19 00:34:01 1.4 0.0 292.5 0.0
12.12.19 00:29:01 1.8 4.7 337.5 0.0
12.12.19 00:24:01 1.8 4.7 337.5 0.0
12.12.19 00:19:01 1.8 2.9 135 0.0
12.12.19 00:14:01 2.2 2.2 135 0.0
12.12.19 00:09:02 2.2 2.2 135 0.0
12.12.19 00:04:02 2.5 2.5 180 0.0
11.12.19 23:59:02 2.5 2.9 315 0.0
11.12.19 23:54:02 2.5 2.9 315 0.0
11.12.19 23:49:02 2.9 0.0 292.5 0.0
11.12.19 23:44:01 3.2 4.7 112.5 0.0
11.12.19 23:39:01 3.2 4.7 112.5 0.0
11.12.19 23:34:01 1.8 4.0 135 0.0
11.12.19 23:29:01 3.2 3.2 292.5 0.0
11.12.19 23:24:02 3.2 3.2 292.5 0.0
11.12.19 23:19:02 3.6 2.2 45 0.0
11.12.19 23:14:02 4.3 2.9 135 0.0
11.12.19 23:09:01 4.3 2.9 135 0.0
11.12.19 23:04:01 4.3 8.3 135 0.0
11.12.19 22:59:01 3.2 6.1 67.5 0.0
11.12.19 22:54:02 3.2 6.1 67.5 0.0
11.12.19 22:49:02 2.5 2.9 112.5 0.0
11.12.19 22:44:02 1.1 2.9 135 0.0
11.12.19 22:39:02 1.1 2.9 135 0.0
11.12.19 22:34:02 0.7 1.4 135 0.0
11.12.19 22:29:01 0.7 0.0 225 0.0
11.12.19 22:24:02 0.7 0.0 225 0.0
11.12.19 22:19:02 1.4 2.2 135 0.0
11.12.19 22:14:02 2.2 1.4 90 0.0
11.12.19 22:09:02 2.2 1.4 90 0.0
11.12.19 22:04:01 2.2 4.3 135 0.0
11.12.19 21:59:01 1.4 4.0 112.5 0.0
11.12.19 21:54:02 1.4 4.0 112.5 0.0
11.12.19 21:49:02 1.1 0.0 270 0.0
11.12.19 21:44:02 0.4 0.0 112.5 0.0
11.12.19 21:39:02 0.4 0.0 112.5 0.0
11.12.19 21:34:01 1.1 0.0 180 0.0
11.12.19 21:29:01 1.1 2.5 135 0.0
11.12.19 21:24:02 1.1 2.5 135 0.0
11.12.19 21:19:02 1.1 3.2 135 0.0
11.12.19 21:14:02 1.8 1.8 112.5 0.0
11.12.19 21:09:02 1.8 1.8 112.5 0.0
11.12.19 21:04:02 1.4 2.2 90 0.0
11.12.19 20:59:01 1.4 4.0 135 0.0
11.12.19 20:54:02 1.4 4.0 135 0.0
11.12.19 20:49:02 1.1 1.8 45 0.0
11.12.19 20:44:02 1.4 0.0 67.5 0.0
11.12.19 20:39:01 1.4 0.0 67.5 0.0
11.12.19 20:34:01 1.1 2.9 270 0.0
11.12.19 20:29:01 1.4 2.5 135 0.0
11.12.19 20:24:02 1.4 2.5 135 0.0
11.12.19 20:19:02 1.4 2.2 90 0.0
11.12.19 20:14:02 2.9 5.0 90 0.0
11.12.19 20:09:01 2.9 5.0 90 0.0
11.12.19 20:04:01 2.9 5.8 112.5 0.0
11.12.19 19:59:01 2.9 4.7 67.5 0.0
11.12.19 19:54:02 2.9 4.7 67.5 0.0
11.12.19 19:49:02 2.9 4.7 112.5 0.0
11.12.19 19:44:02 1.8 4.7 135 0.0
11.12.19 19:39:01 1.8 4.7 135 0.0
11.12.19 19:34:01 2.2 1.8 135 0.0
11.12.19 19:29:01 1.4 1.8 135 0.0
11.12.19 19:24:02 1.4 1.8 135 0.0
11.12.19 19:19:02 1.1 2.2 112.5 0.0
11.12.19 19:14:02 1.8 0.0 247.5 0.0
11.12.19 19:09:01 1.8 0.0 247.5 0.0
11.12.19 19:04:01 1.4 4.0 90 0.0
11.12.19 18:59:01 1.1 0.0 112.5 0.0
11.12.19 18:54:02 1.1 0.0 112.5 0.0
11.12.19 18:49:02 1.1 2.5 112.5 0.0
11.12.19 18:44:02 0.4 0.0 90 0.0
11.12.19 18:39:01 0.4 0.0 90 0.0
11.12.19 18:34:01 0.4 0.0 112.5 0.0
11.12.19 18:29:01 1.4 2.2 135 0.0
11.12.19 18:24:02 1.4 2.2 135 0.0
11.12.19 18:19:02 1.4 2.5 135 0.0
11.12.19 18:14:02 1.8 0.0 135 0.0
11.12.19 18:09:01 1.8 0.0 135 0.0
11.12.19 18:04:01 1.8 3.6 112.5 0.0
11.12.19 17:59:01 2.9 2.9 22.5 0.0
11.12.19 17:54:02 2.9 2.9 22.5 0.0
11.12.19 17:49:02 2.5 6.1 112.5 0.0
11.12.19 17:44:02 1.8 2.9 135 0.0
11.12.19 17:39:01 1.8 2.9 135 0.0
11.12.19 17:34:01 2.9 0.0 90 0.0
11.12.19 17:29:01 2.2 2.9 112.5 0.0
11.12.19 17:24:02 2.2 2.9 112.5 0.0
11.12.19 17:19:02 2.2 1.8 45 0.0
11.12.19 17:14:02 3.2 2.5 112.5 0.0
11.12.19 17:09:02 3.2 2.5 112.5 0.0
11.12.19 17:04:01 2.9 4.7 67.5 0.0
11.12.19 16:59:01 2.9 4.7 112.5 0.0
11.12.19 16:54:02 2.9 4.7 112.5 0.0
11.12.19 16:49:02 2.9 2.9 67.5 0.0
11.12.19 16:44:02 3.2 5.4 90 0.0
11.12.19 16:39:02 3.2 5.4 90 0.0
11.12.19 16:34:01 3.2 2.9 180 0.0
11.12.19 16:29:01 3.2 4.7 135 0.0
11.12.19 16:24:02 3.2 4.7 135 0.0
11.12.19 16:19:02 2.2 2.9 112.5 0.0
11.12.19 16:14:02 2.5 0.0 90 0.0
11.12.19 16:09:01 2.5 0.0 90 0.0
11.12.19 16:04:01 3.2 4.3 112.5 0.0
11.12.19 15:59:01 4.0 4.7 112.5 0.0
11.12.19 15:54:02 4.0 4.7 112.5 0.0
11.12.19 15:49:02 3.6 5.4 67.5 0.0
11.12.19 15:44:02 2.9 7.6 22.5 0.0
11.12.19 15:39:02 2.9 7.6 22.5 0.0
11.12.19 15:34:02 2.2 3.2 112.5 0.0
11.12.19 15:29:02 1.8 2.2 90 0.0
11.12.19 15:24:02 1.8 2.2 90 0.0
11.12.19 15:19:02 2.2 1.8 315 0.0
11.12.19 15:14:02 2.2 1.8 112.5 0.0
11.12.19 15:09:01 2.2 1.8 112.5 0.0
11.12.19 15:04:01 1.4 5.4 90 0.0
11.12.19 14:59:01 1.1 0.0 22.5 0.0
11.12.19 14:54:02 1.1 0.0 22.5 0.0
11.12.19 14:49:02 1.1 1.8 112.5 0.0
11.12.19 14:44:01 1.4 1.4 67.5 0.0
11.12.19 14:39:02 1.4 1.4 67.5 0.0
11.12.19 14:34:02 1.8 4.7 67.5 0.0
11.12.19 14:29:02 2.9 4.7 22.5 0.0
11.12.19 14:24:02 2.9 4.7 22.5 0.0
11.12.19 14:19:02 2.5 4.0 90 0.0
11.12.19 14:14:02 2.5 3.2 337.5 0.0
11.12.19 14:09:01 2.5 3.2 337.5 0.0
11.12.19 14:04:01 2.2 3.2 112.5 0.0
11.12.19 13:59:01 2.9 2.5 45 0.0
11.12.19 13:54:02 2.9 2.5 45 0.0
11.12.19 13:49:02 2.9 4.7 112.5 0.0
11.12.19 13:44:02 3.2 4.0 112.5 0.0
11.12.19 13:39:01 3.2 4.0 112.5 0.0
11.12.19 13:34:01 4.3 3.6 135 0.0
11.12.19 13:29:01 4.3 4.3 247.5 0.0
11.12.19 13:24:02 4.3 4.3 247.5 0.0
11.12.19 13:19:02 4.7 4.0 22.5 0.0
11.12.19 13:14:02 3.6 6.1 112.5 0.0
11.12.19 13:09:02 3.6 6.1 112.5 0.0
11.12.19 13:04:02 2.9 5.4 22.5 0.7
11.12.19 12:59:02 2.9 4.0 45 0.0
11.12.19 12:54:02 2.9 4.0 45 0.0
11.12.19 12:49:02 2.9 8.3 135 0.0
11.12.19 12:44:01 2.5 9.0 112.5 0.0
11.12.19 12:39:01 2.5 9.0 112.5 0.0
11.12.19 12:34:01 3.6 8.3 45 0.0
11.12.19 12:29:01 3.6 4.7 112.5 0.0
11.12.19 12:24:02 3.6 4.7 112.5 0.7
11.12.19 12:19:02 3.6 4.3 45 0.0
11.12.19 12:14:02 2.9 5.8 90 0.0
11.12.19 12:09:01 2.9 5.8 90 0.0
11.12.19 12:04:01 2.5 0.0 90 0.0
11.12.19 11:59:01 2.9 7.2 112.5 0.0
11.12.19 11:54:02 2.9 7.2 112.5 0.0
11.12.19 11:49:02 2.9 6.5 112.5 0.0
11.12.19 11:44:02 1.4 2.9 135 0.7
11.12.19 11:39:01 1.4 2.9 135 0.0
11.12.19 11:34:01 0.7 1.4 180 0.0
11.12.19 11:29:01 0.7 1.8 157.5 0.0
11.12.19 11:24:02 0.7 1.8 157.5 0.0
Index
© 2002-2012 Thomas Dreßler
Alle Rechte vorbehalten
letzte Scriptänderung 12.11.2012